Regional Weather Roundup
Issued by NWS

Home | Current Version | Previous Version | Graphics & Text | Print | Product List | Glossary On
Versions: 1 2 3 4 5 6 7 8 9 10 11 12 13 14 15 16 17 18 19 20 21 22 23 24 25 26 27 28 29 30 31 32 33 34 35 36 37 38 39 40 41 42 43 44 45 46 47 48 49 50
000
ASUS43 KOAX 200910
RWRNE

WEATHER ROUNDUP FOR NEBRASKA
NATIONAL WEATHER SERVICE OMAHA NE
300 AM CST MON FEB 20 2017

NOTES: SATELLITE DATA IS BEING USED TO AUGMENT CLOUD COVER ABOVE
       12000 FEET.
       "FAIR" INDICATES FEW OR NO CLOUDS BELOW 12,000 FEET WITH NO
       SIGNIFICANT WEATHER AND/OR OBSTRUCTIONS TO VISIBILITY.

  * THESE STATIONS DO NOT REPORT WEATHER SUCH AS RAIN...SNOW OR FOG.

NEZ001>004-019>022-054>056-201000-
NEBRASKA PANHANDLE

CITY           SKY/WX    TMP DP  RH WIND       PRES   REMARKS
SCOTTSBLUFF    CLOUDY    47  29  49 W16G26    29.72S
ALLIANCE       CLOUDY    43  36  76 W12       29.66F
CHADRON        CLOUDY    47  38  71 W13       29.65R
KIMBALL        CLOUDY    45  24  44 NW25G37   29.73F
SIDNEY         CLOUDY    48  27  44 NW17      29.73R
$$

NEZ057>060-069>072-079>082-201000-
SOUTHWEST NEBRASKA

CITY           SKY/WX    TMP DP  RH WIND       PRES   REMARKS
NORTH PLATTE   CLOUDY    47  45  93 SE7       29.66R
IMPERIAL       CLOUDY    49  32  52 W15       29.70R
LEXINGTON      CLOUDY    53  50  92 S8        29.69R FOG
MCCOOK         MOCLDY    50  43  77 S6        29.66S
OGALLALA       CLOUDY    49  37  64 NW10      29.67R
$$

NEZ005>010-023>029-035>040-094-201000-
NORTH CENTRAL NEBRASKA

CITY           SKY/WX    TMP DP  RH WIND       PRES   REMARKS
VALENTINE      PTCLDY    48  43  82 SW7       29.58F
AINSWORTH      MOCLDY    51  49  95 S12       29.60F
BROKEN BOW     CLOUDY    53  51  93 S8        29.65F FOG
O`NEILL        CLOUDY    55  53  92 S12       29.65F
ORD            CLOUDY    56  51  84 S10       29.65F
THEDFORD       MOCLDY    50  46  86 S7        29.62F
$$

NEZ041-046>049-061>064-073>077-083>087-201000-
SOUTH CENTRAL NEBRASKA

CITY           SKY/WX    TMP DP  RH WIND       PRES   REMARKS
GRAND ISLAND   CLOUDY    54  54 100 S15       29.70S FOG
AURORA         CLOUDY    55  54  96 S13G20    29.71R
HASTINGS       CLOUDY    56  54  93 S12       29.71S FOG
HEBRON         CLOUDY    58  56  93 S16G22    29.73R
HOLDREGE       CLOUDY    54  53  95 S13G20    29.70R FOG
KEARNEY *      CLOUDY    55  52  88 S18       29.70R
YORK           CLOUDY    55  55 100 S8        29.72S
$$

NEZ011>018-030>034-042>045-201000-
NORTHEAST NEBRASKA

CITY           SKY/WX    TMP DP  RH WIND       PRES   REMARKS
NORFOLK        CLOUDY    54  51  90 S12       29.69F
ALBION         CLOUDY    55  51  88 S10       29.70S FOG
BLAIR          CLOUDY    58  55  87 S12       29.75F
FREMONT        CLOUDY    58  54  86 SE9G16    29.75F
TEKAMAH        CLOUDY    55  52  89 S9        29.75F
WAYNE          CLOUDY    53  52  97 S16       29.70F
$$

NEZ050>053-065>068-078-088>093-201000-
SOUTHEAST NEBRASKA

CITY           SKY/WX    TMP DP  RH WIND       PRES   REMARKS
LINCOLN        CLOUDY    59  56  89 S6        29.74F
OMAHA EPPLEY   CLOUDY    58  52  80 SE12      29.77F
BEATRICE       CLOUDY    62  58  88 S13       29.74R
FALLS CITY     LGT RAIN  57  53  86 SE7       29.80F
NEBRASKA CITY  LGT RAIN  57  55  92 S12       29.79S
PLATTSMOUTH    CLOUDY    58  52  81 SE13      29.78F
$$

NEZ044-045-051>053-067-201000-
OMAHA AREA

CITY           SKY/WX    TMP DP  RH WIND       PRES   REMARKS
OMAHA EPPLEY   CLOUDY    58  52  80 SE12      29.77F
BLAIR          CLOUDY    58  55  87 S12       29.75F
FREMONT        CLOUDY    58  54  86 SE9G16    29.75F
MILLARD        CLOUDY    60  56  86 SE7       29.76F
OFFUTT AFB     CLOUDY    60  60 100 SE9       29.77F
PLATTSMOUTH    CLOUDY    58  52  81 SE13      29.78F
WAHOO          FAIR      56  54  91 S12       29.74F
$$




USA.gov is the U.S. government's official web portal to all federal, state and local government web resources and services.